SNAP-3 ALICE

Last updated on Wed Nov 05 2025 00:03:48 GMT+0000 (Coordinated Universal Time)

1 40970U 15058G 25308.53676607 .00035807 00000+0 11856-2 0 9992 2 40970 64.7596 140.6523 0054282 142.5408 217.9527 15.29698374 82226
UTC large
Height (km)
Speed (km/s)
/
Latitude / Longitude
Inclination (degrees)
Orbital Period (minutes)
Azimuth
Elevation
Range (km)
Doppler Factor

Next 0 passes for location: London (51.5072 / 0.1276)

Sorry there are no passes over London.